ドゥ・トイト-ハートレー彗星

79P/du Toit-Hartley (2008)

English version
Home page
Updated on October 12, 2008

---------------------------------------------------------------------

・ プロフィール

・ 写真集

・ 軌道要素

The following orbital elements are taken from MPC 54169:

Epoch 2008 May 14.0 TT = JDT 2454600.5
T 2008 May 28.4487 TT                                   MPC
q   1.230478             (2000.0)            P               Q
n   0.1867951      Peri.  253.2769      -0.9318848      +0.3605578
a   3.030812       Node   307.8397      -0.3106253      -0.8498887
e   0.594010       Incl.    2.8930      -0.1873568      -0.3843010
P   5.28
From 52 observations 1982-2003, mean residual 0".9.  Nongravitational
     parameters A1 = +0.30, A2 = +0.0113.

・ 星図

・ 光度変化

        m1 = 15.5 + 5 logΔ + 10.0 log r(t + 20)

---------------------------------------------------------------------

軌道要素はMPCのEphemerides and Orbital Elementsに掲載されたものです。
星図はステラナビゲータ Ver.8 (アストロアーツ) で作成したものです。
光度グラフはComet for Windowsで作成したものです。

---------------------------------------------------------------------

Copyright(C) Seiichi Yoshida (comet@aerith.net). All rights reserved.